FW2156 Weather Reports


Display with metric or nautical units.
time (UTC)temp
F
wind
direction
speed
MPH
gust
MPH
rain 1hr
in
rain 24hr
in
rain mn
in
humidity
%
barometer
mb
20210515072210 53 74 0.0 3.0 0.00 0.00 0.00 53 1014.6
20210515071711 53 150 0.0 0.0 0.00 0.00 0.00 52 1014.6
20210515071216 53 68 4.0 5.0 0.00 0.00 0.00 51 1014.6
20210515070715 53 89 0.0 0.0 0.00 0.00 0.00 50 1014.6
20210515070215 53 68 0.0 3.0 0.00 0.00 0.00 49 1014.6
20210515065714 53 312 0.0 3.0 0.00 0.00 0.00 48 1014.6
20210515065213 53 262 0.0 0.0 0.00 0.00 0.00 47 1014.6
20210515064719 53 25 5.0 7.0 0.00 0.00 0.00 47 1014.6
20210515064211 54 308 0.0 0.0 0.00 0.00 0.00 45 1014.6
20210515063712 54 58 0.0 0.0 0.00 0.00 0.00 45 1014.6
20210515063214 54 267 0.0 0.0 0.00 0.00 0.00 44 1014.2
20210515062712 54 144 0.0 0.0 0.00 0.00 0.00 43 1014.2
20210515062218 54 252 1.0 3.0 0.00 0.00 0.00 45 1014.2
20210515061714 54 279 0.0 0.0 0.00 0.00 0.00 45 1014.2
20210515061215 54 330 3.0 5.0 0.00 0.00 0.00 44 1014.2
20210515060711 54 317 0.0 0.0 0.00 0.00 0.00 44 1014.2
20210515060211 54 217 4.0 5.0 0.00 0.00 0.00 43 1014.2
20210515055711 54 252 0.0 0.0 0.00 0.00 0.00 44 1013.9
20210515055213 54 238 0.0 0.0 0.00 0.00 0.00 44 1013.9
20210515054714 55 231 0.0 0.0 0.00 0.00 0.00 46 1013.9
20210515054213 55 233 0.0 0.0 0.00 0.00 0.00 45 1013.9
20210515053714 56 236 0.0 0.0 0.00 0.00 0.00 44 1013.9
20210515053210 57 198 0.0 0.0 0.00 0.00 0.00 44 1013.9
20210515052718 57 134 1.0 3.0 0.00 0.00 0.00 43 1014.2
20210515052213 57 216 1.0 3.0 0.00 0.00 0.00 41 1013.9
20210515051640 57 232 0.0 0.0 0.00 0.00 0.00 42 1013.9
20210515051211 57 246 0.0 0.0 0.00 0.00 0.00 41 1014.2
20210515050713 57 229 0.0 0.0 0.00 0.00 0.00 42 1014.2
20210515050213 57 151 0.0 0.0 0.00 0.00 0.00 42 1014.2
20210515045714 57 225 0.0 0.0 0.00 0.00 0.00 39 1014.2
20210515045212 57 225 0.0 0.0 0.00 0.00 0.00 41 1014.2
20210515044712 57 193 0.0 0.0 0.00 0.00 0.00 40 1014.2
20210515044210 57 239 0.0 0.0 0.00 0.00 0.00 41 1014.2
20210515043713 57 257 0.0 0.0 0.00 0.00 0.00 39 1014.2
20210515043221 57 243 0.0 0.0 0.00 0.00 0.00 36 1014.2
20210515042715 57 234 0.0 0.0 0.00 0.00 0.00 37 1014.6
20210515042214 57 221 0.0 0.0 0.00 0.00 0.00 38 1014.2
20210515041715 57 180 0.0 0.0 0.00 0.00 0.00 38 1014.2
20210515041216 57 227 0.0 0.0 0.00 0.00 0.00 40 1014.2
20210515040714 58 227 0.0 0.0 0.00 0.00 0.00 37 1014.2
20210515040216 58 227 0.0 0.0 0.00 0.00 0.00 37 1014.2
20210515035644 58 227 0.0 0.0 0.00 0.00 0.00 37 1014.6
20210515035143 59 216 0.0 0.0 0.00 0.00 0.00 37 1014.2
20210515034640 59 223 0.0 0.0 0.00 0.00 0.00 37 1014.2
20210515034137 59 215 0.0 0.0 0.00 0.00 0.00 37 1014.2
20210515033713 60 223 0.0 0.0 0.00 0.00 0.00 37 1014.2
20210515033213 60 224 0.0 0.0 0.00 0.00 0.00 36 1014.2
20210515032711 61 213 0.0 0.0 0.00 0.00 0.00 35 1014.2
20210515032210 61 229 0.0 0.0 0.00 0.00 0.00 34 1014.2
20210515031714 61 229 0.0 0.0 0.00 0.00 0.00 33 1014.2
20210515031214 62 224 0.0 0.0 0.00 0.00 0.00 32 1014.2
20210515030712 62 213 0.0 0.0 0.00 0.00 0.00 31 1014.2
20210515030216 62 68 3.0 5.0 0.00 0.00 0.00 30 1014.2
20210515025712 63 103 3.0 5.0 0.00 0.00 0.00 29 1013.9
20210515025212 63 111 1.0 3.0 0.00 0.00 0.00 29 1013.9
20210515024712 63 88 0.0 0.0 0.00 0.00 0.00 29 1013.9
20210515024211 64 129 2.0 3.0 0.00 0.00 0.00 28 1013.9
20210515023711 64 161 4.0 5.0 0.00 0.00 0.00 28 1014.2
20210515023214 64 102 2.0 3.0 0.00 0.00 0.00 28 1013.9
20210515022641 65 122 1.0 3.0 0.00 0.00 0.00 28 1013.9
20210515022143 65 93 2.0 3.0 0.00 0.00 0.00 27 1013.9
20210515021613 65 57 0.0 0.0 0.00 0.00 0.00 27 1014.2
20210515021113 65 165 0.0 0.0 0.00 0.00 0.00 27 1014.2
20210515020614 65 185 0.0 3.0 0.00 0.00 0.00 26 1013.9
20210515020113 65 184 0.0 0.0 0.00 0.00 0.00 25 1014.2
20210515015614 65 220 0.0 0.0 0.00 0.00 0.00 26 1014.2
20210515015122 66 109 3.0 3.0 0.00 0.00 0.00 26 1014.2
20210515014615 66 92 2.0 3.0 0.00 0.00 0.00 27 1014.2
20210515014128 66 212 0.0 0.0 0.00 0.00 0.00 26 1014.2
20210515013614 67 124 3.0 5.0 0.00 0.00 0.00 26 1014.2
20210515013112 67 180 0.0 0.0 0.00 0.00 0.00 25 1014.2
20210515012621 67 193 3.0 5.0 0.00 0.00 0.00 25 1014.2
20210515012111 67 128 1.0 5.0 0.00 0.00 0.00 25 1014.2
20210515011612 67 245 1.0 3.0 0.00 0.00 0.00 25 1014.2
20210515011114 67 94 6.0 7.0 0.00 0.00 0.00 25 1014.2
20210515010613 66 223 0.0 0.0 0.00 0.00 0.00 23 1014.2
20210515010122 66 126 3.0 5.0 0.00 0.00 0.00 23 1014.2
20210515005612 66 114 3.0 5.0 0.00 0.00 0.00 24 1014.6
20210515005112 66 142 3.0 5.0 0.00 0.00 0.00 24 1014.2
20210515004625 66 107 1.0 3.0 0.00 0.00 0.00 25 1014.2
20210515004115 66 110 3.0 5.0 0.00 0.00 0.00 24 1014.6
20210515003614 66 112 4.0 5.0 0.00 0.00 0.00 25 1014.6
20210515003112 66 114 7.0 7.0 0.00 0.00 0.00 24 1014.6
20210515002625 66 140 3.0 5.0 0.00 0.00 0.00 24 1014.6
20210515002114 66 79 3.0 3.0 0.00 0.00 0.00 24 1014.6
20210515001615 66 98 7.0 10.0 0.00 0.00 0.00 25 1014.6
20210515001114 66 89 1.0 3.0 0.00 0.00 0.00 23 1014.6
20210515000613 66 103 5.0 7.0 0.00 0.00 0.00 24 1014.6
20210515000115 66 121 0.0 0.0 0.00 0.00 0.00 24 1014.6
20210514235620 66 120 3.0 5.0 0.00 0.00 0.00 24 1014.9
20210514235112 66 349 0.0 3.0 0.00 0.00 0.00 25 1014.6
20210514234613 66 305 0.0 0.0 0.00 0.00 0.00 24 1014.6
20210514234222 66 246 0.0 0.0 0.00 0.00 0.00 24 1014.9
20210514233615 66 98 0.0 3.0 0.00 0.00 0.00 25 1014.9
20210514233118 66 82 4.0 5.0 0.00 0.00 0.00 23 1014.9
20210514232615 66 87 4.0 5.0 0.00 0.00 0.00 23 1014.9
20210514232112 66 79 3.0 5.0 0.00 0.00 0.00 23 1014.9
20210514231612 66 118 0.0 0.0 0.00 0.00 0.00 25 1014.6
20210514231114 66 86 3.0 5.0 0.00 0.00 0.00 25 1014.9
20210514230613 66 136 2.0 3.0 0.00 0.00 0.00 24 1014.9
20210514230113 67 149 4.0 5.0 0.00 0.00 0.00 23 1014.9
20210514225613 67 100 3.0 5.0 0.00 0.00 0.00 24 1014.9
20210514225111 68 78 4.0 5.0 0.00 0.00 0.00 23 1014.9
20210514224614 68 264 0.0 3.0 0.00 0.00 0.00 23 1014.9
20210514224216 68 149 0.0 0.0 0.00 0.00 0.00 23 1014.9
20210514223614 68 227 0.0 0.0 0.00 0.00 0.00 23 1015.2
20210514223111 68 148 0.0 3.0 0.00 0.00 0.00 22 1015.2
20210514222615 68 178 4.0 5.0 0.00 0.00 0.00 20 1015.2
20210514222115 67 187 4.0 5.0 0.00 0.00 0.00 21 1015.2
20210514221713 67 44 3.0 5.0 0.00 0.00 0.00 23 1015.2
20210514221113 67 161 5.0 7.0 0.00 0.00 0.00 23 1015.2
20210514220616 67 65 0.0 3.0 0.00 0.00 0.00 23 1015.2
20210514220115 67 57 3.0 5.0 0.00 0.00 0.00 23 1015.6
20210514215541 67 95 0.0 3.0 0.00 0.00 0.00 24 1015.6
20210514215040 67 208 0.0 3.0 0.00 0.00 0.00 24 1015.9
20210514214535 68 113 6.0 7.0 0.00 0.00 0.00 23 1015.6
20210514214038 68 131 0.0 0.0 0.00 0.00 0.00 23 1015.9
20210514213540 68 195 3.0 5.0 0.00 0.00 0.00 23 1015.9
20210514213036 68 72 0.0 3.0 0.00 0.00 0.00 25 1015.9
20210514212539 68 234 5.0 7.0 0.00 0.00 0.00 23 1015.9
20210514212015 67 245 7.0 10.0 0.00 0.00 0.00 22 1015.9
20210514211512 66 261 0.0 3.0 0.00 0.00 0.00 23 1015.9
20210514211014 66 236 6.0 7.0 0.00 0.00 0.00 23 1015.9
20210514210511 65 166 0.0 0.0 0.00 0.00 0.00 24 1015.9
20210514210029 65 134 3.0 5.0 0.00 0.00 0.00 23 1016.3
20210514205614 64 103 0.0 3.0 0.00 0.00 0.00 26 1015.9
20210514205013 64 84 6.0 7.0 0.00 0.00 0.00 27 1015.9
20210514204543 64 72 6.0 7.0 0.00 0.00 0.00 27 1016.3
20210514204015 64 111 0.0 3.0 0.00 0.00 0.00 26 1016.3
20210514203517 65 80 7.0 7.0 0.00 0.00 0.00 26 1015.9
20210514203115 65 229 0.0 0.0 0.00 0.00 0.00 25 1016.3
20210514202511 65 119 4.0 5.0 0.00 0.00 0.00 26 1016.3
20210514202017 65 88 4.0 5.0 0.00 0.00 0.00 26 1016.3
20210514201514 65 221 0.0 0.0 0.00 0.00 0.00 27 1016.3
20210514201014 65 100 6.0 7.0 0.00 0.00 0.00 24 1016.3
20210514200515 65 136 5.0 7.0 0.00 0.00 0.00 25 1016.3
20210514200044 65 152 0.0 0.0 0.00 0.00 0.00 26 1016.3
20210514195509 64 221 0.0 0.0 0.00 0.00 0.00 26 1016.3
20210514195034 64 139 2.0 7.0 0.00 0.00 0.00 26 1016.3
20210514194511 64 299 3.0 5.0 0.00 0.00 0.00 27 1016.6
20210514194014 64 163 5.0 7.0 0.00 0.00 0.00 27 1016.6
20210514193526 64 117 5.0 7.0 0.00 0.00 0.00 28 1016.3
20210514193028 64 75 3.0 5.0 0.00 0.00 0.00 26 1016.3
20210514192524 64 225 1.0 3.0 0.00 0.00 0.00 26 1016.6
20210514192021 64 108 3.0 5.0 0.00 0.00 0.00 25 1016.6
20210514191527 64 95 6.0 7.0 0.00 0.00 0.00 28 1016.9
20210514191024 64 78 6.0 7.0 0.00 0.00 0.00 27 1016.6
20210514190525 64 87 4.0 7.0 0.00 0.00 0.00 29 1016.9
20210514190026 64 114 3.0 5.0 0.00 0.00 0.00 27 1016.9
20210514185521 64 75 8.0 10.0 0.00 0.00 0.00 27 1016.9
20210514185024 64 100 9.0 12.0 0.00 0.00 0.00 27 1016.9
20210514184523 64 69 5.0 7.0 0.00 0.00 0.00 29 1017.3
20210514184023 64 33 3.0 5.0 0.00 0.00 0.00 28 1016.9
20210514183526 64 79 6.0 7.0 0.00 0.00 0.00 26 1017.3
20210514183020 64 135 2.0 5.0 0.00 0.00 0.00 31 1017.3
20210514182518 63 67 2.0 3.0 0.00 0.00 0.00 30 1017.3
20210514182025 63 344 2.0 3.0 0.00 0.00 0.00 29 1017.3
20210514181517 63 221 0.0 0.0 0.00 0.00 0.00 28 1017.3
20210514181025 63 117 0.0 0.0 0.00 0.00 0.00 28 1017.3
20210514180519 63 233 4.0 5.0 0.00 0.00 0.00 28 1017.3
20210514180020 63 114 0.0 0.0 0.00 0.00 0.00 28 1017.6
20210514175523 63 338 3.0 5.0 0.00 0.00 0.00 29 1017.6
20210514175025 63 3 1.0 3.0 0.00 0.00 0.00 30 1017.6
20210514174516 62 77 4.0 5.0 0.00 0.00 0.00 28 1017.6
20210514174019 62 105 7.0 7.0 0.00 0.00 0.00 30 1017.3
20210514173525 62 91 4.0 7.0 0.00 0.00 0.00 29 1017.6
20210514173022 62 135 0.0 3.0 0.00 0.00 0.00 31 1017.3
20210514172525 61 118 4.0 5.0 0.00 0.00 0.00 31 1017.6
20210514172020 61 69 1.0 3.0 0.00 0.00 0.00 31 1017.3
20210514171522 61 352 0.0 0.0 0.00 0.00 0.00 32 1017.6
20210514171028 61 12 1.0 3.0 0.00 0.00 0.00 32 1017.6
20210514170523 61 146 0.0 0.0 0.00 0.00 0.00 35 1017.6
20210514170021 61 245 0.0 3.0 0.00 0.00 0.00 34 1017.3
20210514165533 61 316 3.0 3.0 0.00 0.00 0.00 33 1017.6
20210514165024 61 235 0.0 0.0 0.00 0.00 0.00 34 1017.6
20210514164526 60 331 0.0 0.0 0.00 0.00 0.00 35 1017.6
20210514164017 60 88 0.0 0.0 0.00 0.00 0.00 36 1017.6
20210514163512 59 258 1.0 3.0 0.00 0.00 0.00 38 1017.9
20210514163022 59 112 0.0 0.0 0.00 0.00 0.00 39 1017.9
20210514162524 59 300 0.0 0.0 0.00 0.00 0.00 39 1017.6
20210514162018 59 130 2.0 3.0 0.00 0.00 0.00 38 1017.6
20210514161512 59 119 0.0 0.0 0.00 0.00 0.00 37 1017.9
20210514161016 58 309 1.0 3.0 0.00 0.00 0.00 39 1017.9
20210514160513 58 339 3.0 5.0 0.00 0.00 0.00 39 1017.9
20210514160015 58 296 0.0 0.0 0.00 0.00 0.00 37 1017.9
20210514155520 57 332 3.0 5.0 0.00 0.00 0.00 39 1017.9
20210514155018 57 44 0.0 0.0 0.00 0.00 0.00 37 1017.9
20210514154512 56 278 0.0 0.0 0.00 0.00 0.00 40 1017.9
20210514154014 56 239 2.0 3.0 0.00 0.00 0.00 42 1017.9
20210514153516 55 318 0.0 0.0 0.00 0.00 0.00 44 1017.9
20210514153013 54 276 0.0 0.0 0.00 0.00 0.00 43 1017.9
20210514152514 54 19 2.0 3.0 0.00 0.00 0.00 45 1017.9
20210514152017 53 251 0.0 0.0 0.00 0.00 0.00 43 1017.9
20210514151519 52 286 0.0 0.0 0.00 0.00 0.00 46 1017.9
20210514151015 51 311 0.0 0.0 0.00 0.00 0.00 48 1017.9
20210514150516 51 264 3.0 5.0 0.00 0.00 0.00 51 1017.9
20210514150012 50 250 2.0 3.0 0.00 0.00 0.00 52 1017.9
20210514145520 50 224 4.0 5.0 0.00 0.00 0.00 53 1017.9
20210514145022 49 223 4.0 5.0 0.00 0.00 0.00 54 1017.9
20210514144521 49 265 3.0 5.0 0.00 0.00 0.00 54 1017.9
20210514143944 48 237 3.0 3.0 0.00 0.00 0.00 54 1017.9
20210514143439 48 267 1.0 3.0 0.00 0.00 0.00 54 1017.9
20210514142939 47 233 1.0 3.0 0.00 0.00 0.00 55 1017.9
20210514142440 46 206 4.0 5.0 0.00 0.00 0.00 56 1017.9
20210514141947 46 237 0.0 3.0 0.00 0.00 0.00 58 1017.9
20210514141442 45 264 3.0 5.0 0.00 0.00 0.00 58 1017.9
20210514140937 45 248 5.0 5.0 0.00 0.00 0.00 58 1017.9
20210514140442 44 213 1.0 3.0 0.00 0.00 0.00 59 1017.9
20210514140016 44 263 4.0 5.0 0.00 0.00 0.00 60 1017.9
20210514135515 44 234 4.0 5.0 0.00 0.00 0.00 61 1017.9
20210514135014 44 276 2.0 3.0 0.00 0.00 0.00 61 1017.9
20210514134515 44 267 4.0 5.0 0.00 0.00 0.00 61 1017.9
20210514134018 44 238 3.0 5.0 0.00 0.00 0.00 61 1017.9
20210514133512 44 261 2.0 3.0 0.00 0.00 0.00 61 1017.9
20210514133016 44 208 0.0 0.0 0.00 0.00 0.00 61 1017.9
20210514132513 44 223 0.0 0.0 0.00 0.00 0.00 61 1017.9
20210514132015 44 231 0.0 0.0 0.00 0.00 0.00 61 1017.9
20210514131512 43 233 0.0 0.0 0.00 0.00 0.00 61 1017.9
20210514131015 43 261 0.0 0.0 0.00 0.00 0.00 61 1017.6
20210514130512 43 272 0.0 0.0 0.00 0.00 0.00 62 1017.9
20210514130012 43 265 0.0 0.0 0.00 0.00 0.00 62 1017.9
20210514125515 42 311 0.0 0.0 0.00 0.00 0.00 62 1017.9
20210514125014 41 218 0.0 0.0 0.00 0.00 0.00 62 1017.9
20210514124514 41 251 0.0 0.0 0.00 0.00 0.00 63 1017.9
20210514124014 40 269 0.0 3.0 0.00 0.00 0.00 64 1017.6
20210514123511 39 279 5.0 10.0 0.00 0.00 0.00 67 1017.9
20210514123119 39 292 0.0 0.0 0.00 0.00 0.00 69 1017.9
20210514122513 39 245 0.0 0.0 0.00 0.00 0.00 69 1017.9
20210514122014 39 182 0.0 0.0 0.00 0.00 0.00 68 1017.9
20210514121513 40 148 0.0 0.0 0.00 0.00 0.00 68 1017.9
20210514121014 41 197 0.0 0.0 0.00 0.00 0.00 67 1017.9
20210514120513 41 212 0.0 0.0 0.00 0.00 0.00 67 1017.6
20210514120013 42 217 0.0 0.0 0.00 0.00 0.00 66 1017.6
20210514115513 42 196 0.0 0.0 0.00 0.00 0.00 65 1017.9
20210514115014 43 152 0.0 0.0 0.00 0.00 0.00 63 1017.9
20210514114519 43 271 0.0 0.0 0.00 0.00 0.00 64 1017.9
20210514114014 43 276 2.0 3.0 0.00 0.00 0.00 63 1017.9
20210514113511 43 281 1.0 3.0 0.00 0.00 0.00 63 1017.9
20210514113014 43 295 4.0 5.0 0.00 0.00 0.00 63 1017.9
20210514112516 43 303 5.0 5.0 0.00 0.00 0.00 63 1017.9
20210514111938 43 289 3.0 5.0 0.00 0.00 0.00 63 1017.9
20210514111439 43 314 3.0 5.0 0.00 0.00 0.00 63 1017.9
20210514110941 42 318 5.0 7.0 0.00 0.00 0.00 63 1017.9
20210514110412 42 284 5.0 5.0 0.00 0.00 0.00 63 1017.9
20210514105921 41 275 2.0 3.0 0.00 0.00 0.00 63 1017.9
20210514105414 41 288 0.0 0.0 0.00 0.00 0.00 65 1017.9
20210514104913 40 271 0.0 0.0 0.00 0.00 0.00 67 1017.9
20210514104416 40 278 0.0 0.0 0.00 0.00 0.00 69 1017.9
20210514103912 40 259 0.0 0.0 0.00 0.00 0.00 68 1017.9
20210514103414 40 234 0.0 0.0 0.00 0.00 0.00 68 1017.9
20210514102913 41 205 0.0 0.0 0.00 0.00 0.00 68 1017.9
20210514102420 41 147 0.0 0.0 0.00 0.00 0.00 68 1017.9
20210514101912 41 192 0.0 0.0 0.00 0.00 0.00 68 1017.9
20210514101414 41 242 0.0 0.0 0.00 0.00 0.00 67 1017.9
20210514100911 41 248 0.0 0.0 0.00 0.00 0.00 68 1017.9
20210514100343 41 263 0.0 0.0 0.00 0.00 0.00 67 1017.9
20210514095844 41 269 0.0 0.0 0.00 0.00 0.00 67 1017.9
20210514095341 41 266 0.0 0.0 0.00 0.00 0.00 67 1017.9
20210514094820 41 262 0.0 0.0 0.00 0.00 0.00 67 1017.9
20210514094311 42 272 0.0 0.0 0.00 0.00 0.00 66 1017.9
20210514093819 42 261 0.0 0.0 0.00 0.00 0.00 65 1017.9
20210514093314 42 278 0.0 0.0 0.00 0.00 0.00 64 1017.9
20210514092811 43 242 0.0 0.0 0.00 0.00 0.00 63 1017.9
20210514092311 43 255 0.0 0.0 0.00 0.00 0.00 63 1017.9
20210514091812 44 263 0.0 0.0 0.00 0.00 0.00 63 1017.9
20210514091312 44 246 0.0 0.0 0.00 0.00 0.00 63 1017.9
20210514090811 44 267 0.0 0.0 0.00 0.00 0.00 62 1017.9
20210514090310 44 265 0.0 0.0 0.00 0.00 0.00 62 1017.9
20210514085810 44 281 0.0 0.0 0.00 0.00 0.00 62 1017.9
20210514085311 44 275 0.0 0.0 0.00 0.00 0.00 62 1017.9
20210514084810 44 283 0.0 0.0 0.00 0.00 0.00 63 1017.9
20210514084314 44 273 0.0 0.0 0.00 0.00 0.00 63 1017.9
20210514083811 44 293 0.0 0.0 0.00 0.00 0.00 63 1017.9
20210514083318 45 265 0.0 0.0 0.00 0.00 0.00 62 1018.3
20210514082813 45 252 0.0 0.0 0.00 0.00 0.00 62 1017.9
20210514082312 45 270 0.0 0.0 0.00 0.00 0.00 62 1017.9
20210514081810 45 288 0.0 3.0 0.00 0.00 0.00 62 1017.9
20210514081241 45 265 0.0 0.0 0.00 0.00 0.00 62 1017.9
20210514080739 45 300 3.0 5.0 0.00 0.00 0.00 62 1017.9
20210514080236 45 245 3.0 5.0 0.00 0.00 0.00 62 1018.3
20210514075737 45 293 5.0 5.0 0.00 0.00 0.00 62 1018.3
20210514075240 45 289 4.0 5.0 0.00 0.00 0.00 62 1018.3
20210514074738 45 274 1.0 3.0 0.00 0.00 0.00 62 1017.9
20210514074239 45 283 3.0 5.0 0.00 0.00 0.00 62 1017.9
20210514073736 45 260 1.0 3.0 0.00 0.00 0.00 61 1017.9
20210514073240 46 306 5.0 5.0 0.00 0.00 0.00 61 1017.9
20210514072739 46 299 3.0 5.0 0.00 0.00 0.00 61 1018.3